INMARSAT 3-F2 1 24307U 96053A 25198.51172705 -.00000353 00000-0 00000-0 0 9994 2 24307 9.0946 57.2598 0006949 58.5879 133.6622 0.99996084105577 ARTEMIS 1 26863U 01029A 25198.38687079 -.00000135 00000-0 00000+0 0 9999 2 26863 14.5952 8.9875 0016191 167.5803 179.7737 0.99289053 88774 ANIK F1-R 1 28868U 05036A 25198.53610574 -.00000069 00000-0 00000-0 0 9998 2 28868 3.4508 80.7876 0003471 26.4036 274.0854 1.00271636 43098 GALAXY 15 1 28884U 05041A 25198.47795721 -.00000214 00000-0 00000-0 0 9995 2 28884 2.6640 80.9589 0014847 125.9646 220.2958 0.98941970 72123 INMARSAT 4-F2 1 28899U 05044A 25198.85600122 -.00000257 00000-0 00000+0 0 9992 2 28899 4.6593 43.5426 0001950 92.0676 251.9498 1.00270912 72148 HIMAWARI 7 1 28937U 06004A 25198.47509719 -.00000188 00000-0 00000-0 0 9994 2 28937 4.9178 77.1073 0007452 140.4036 194.0457 0.99077045 70908 INMARSAT 4-F3 1 33278U 08039A 25198.68072330 -.00000135 00000-0 00000+0 0 9996 2 33278 4.0119 30.0574 0002628 100.6427 312.0982 1.00271670 61913 QZS-1 (MICHIBIKI) 1 37158U 10045A 25197.98746575 -.00000021 00000-0 00000-0 0 9993 2 37158 43.7737 120.0792 0003847 37.4711 138.2428 0.87715244 53456 GSAT 8 1 37605U 11022A 25198.79211291 .00000091 00000-0 00000+0 0 9993 2 37605 1.2632 86.1842 0002894 158.3237 31.5724 1.00270991 51881 LUCH 5A 1 37951U 11074B 25198.62655691 -.00000046 00000-0 00000+0 0 9993 2 37951 7.8990 78.8314 0003404 59.1381 190.3192 1.00272932 49834 SES 5 1 38652U 12036A 25198.55829251 .00000041 00000-0 00000+0 0 9992 2 38652 0.0330 342.1034 0002009 130.7504 28.7248 1.00269899 47714 GSAT 10 1 38779U 12051B 25198.57390656 -.00000158 00000-0 00000-0 0 9994 2 38779 0.1114 270.1605 0008029 189.4720 125.5941 1.00272064 46744 LUCH 5B 1 38977U 12061A 25198.41134196 -.00000135 00000-0 00000+0 0 9997 2 38977 9.7540 53.1141 0004719 130.8835 243.2533 1.00272347 46823 ASTRA 5B 1 39617U 14011B 25198.77621568 .00000144 00000-0 00000+0 0 9998 2 39617 0.0792 300.7631 0002040 190.6521 107.3128 1.00269183 41519 LUCH 5V 1 39727U 14023A 25198.57615990 -.00000263 00000-0 00000-0 0 9997 2 39727 4.2910 72.9611 0002683 86.5329 78.2027 1.00266143 41008 GSAT 15 1 41028U 15065A 25198.29043029 -.00000250 00000-0 00000-0 0 9994 2 41028 0.0143 130.9942 0003349 327.1361 35.2558 1.00269969 35441 QZS-2 1 42738U 17028A 25198.44462611 -.00000105 00000-0 00000-0 0 9992 2 42738 39.9451 248.0456 0757391 269.5723 80.1311 1.00276496 4263